<?xml version="1.0"?>
<gpx xmlns="http://www.topografix.com/GPX/1/1" xmlns:xsi="http://www.w3.org/2001/XMLSchema-instance" version="1.1" creator="GPX RubyGem 1.0.0 -- http://dougfales.github.io/gpx/" xsi:schemaLocation="http://www.topografix.com/GPX/1/1 http://www.topografix.com/GPX/1/1/gpx.xsd">
  <metadata>
    <name/>
    <time>2026-05-09T23:10:07+00:00</time>
    <bound minlat="90.0" minlon="180.0" maxlat="-90.0" maxlon="-180.0"/>
  </metadata>
  <trk>
    <name/>
    <trkseg>
      <trkpt lat="50.021558" lon="7.781447">
        <time>1970-01-01T00:00:00+00:00</time>
        <ele>170.0</ele>
      </trkpt>
      <trkpt lat="50.02135" lon="7.780555">
        <time>1970-01-01T00:00:00+00:00</time>
        <ele>174.0</ele>
      </trkpt>
      <trkpt lat="50.021232" lon="7.779977">
        <time>1970-01-01T00:00:00+00:00</time>
        <ele>177.0</ele>
      </trkpt>
      <trkpt lat="50.021155" lon="7.779057">
        <time>1970-01-01T00:00:00+00:00</time>
        <ele>179.0</ele>
      </trkpt>
      <trkpt lat="50.021046" lon="7.77809">
        <time>1970-01-01T00:00:00+00:00</time>
        <ele>180.0</ele>
      </trkpt>
      <trkpt lat="50.021022" lon="7.777887">
        <time>1970-01-01T00:00:00+00:00</time>
        <ele>180.0</ele>
      </trkpt>
      <trkpt lat="50.021015" lon="7.777467">
        <time>1970-01-01T00:00:00+00:00</time>
        <ele>179.0</ele>
      </trkpt>
      <trkpt lat="50.020961" lon="7.777291">
        <time>1970-01-01T00:00:00+00:00</time>
        <ele>180.0</ele>
      </trkpt>
      <trkpt lat="50.020852" lon="7.777135">
        <time>1970-01-01T00:00:00+00:00</time>
        <ele>180.0</ele>
      </trkpt>
      <trkpt lat="50.020575" lon="7.776728">
        <time>1970-01-01T00:00:00+00:00</time>
        <ele>180.0</ele>
      </trkpt>
      <trkpt lat="50.020374" lon="7.776513">
        <time>1970-01-01T00:00:00+00:00</time>
        <ele>182.0</ele>
      </trkpt>
      <trkpt lat="50.019997" lon="7.776027">
        <time>1970-01-01T00:00:00+00:00</time>
        <ele>183.0</ele>
      </trkpt>
      <trkpt lat="50.019858" lon="7.775737">
        <time>1970-01-01T00:00:00+00:00</time>
        <ele>182.0</ele>
      </trkpt>
      <trkpt lat="50.019735" lon="7.775389">
        <time>1970-01-01T00:00:00+00:00</time>
        <ele>183.0</ele>
      </trkpt>
      <trkpt lat="50.019589" lon="7.775063">
        <time>1970-01-01T00:00:00+00:00</time>
        <ele>184.0</ele>
      </trkpt>
      <trkpt lat="50.019416" lon="7.774726">
        <time>1970-01-01T00:00:00+00:00</time>
        <ele>187.0</ele>
      </trkpt>
      <trkpt lat="50.019167" lon="7.774015">
        <time>1970-01-01T00:00:00+00:00</time>
        <ele>190.0</ele>
      </trkpt>
      <trkpt lat="50.01876" lon="7.773296">
        <time>1970-01-01T00:00:00+00:00</time>
        <ele>194.0</ele>
      </trkpt>
      <trkpt lat="50.018476" lon="7.772576">
        <time>1970-01-01T00:00:00+00:00</time>
        <ele>196.0</ele>
      </trkpt>
      <trkpt lat="50.018299" lon="7.772178">
        <time>1970-01-01T00:00:00+00:00</time>
        <ele>199.0</ele>
      </trkpt>
      <trkpt lat="50.018242" lon="7.771994">
        <time>1970-01-01T00:00:00+00:00</time>
        <ele>200.0</ele>
      </trkpt>
      <trkpt lat="50.018235" lon="7.771891">
        <time>1970-01-01T00:00:00+00:00</time>
        <ele>200.0</ele>
      </trkpt>
      <trkpt lat="50.018128" lon="7.770866">
        <time>1970-01-01T00:00:00+00:00</time>
        <ele>204.0</ele>
      </trkpt>
      <trkpt lat="50.018083" lon="7.770208">
        <time>1970-01-01T00:00:00+00:00</time>
        <ele>206.0</ele>
      </trkpt>
      <trkpt lat="50.017891" lon="7.768614">
        <time>1970-01-01T00:00:00+00:00</time>
        <ele>212.0</ele>
      </trkpt>
      <trkpt lat="50.017764" lon="7.768151">
        <time>1970-01-01T00:00:00+00:00</time>
        <ele>214.0</ele>
      </trkpt>
      <trkpt lat="50.017342" lon="7.766053">
        <time>1970-01-01T00:00:00+00:00</time>
        <ele>222.0</ele>
      </trkpt>
      <trkpt lat="50.017258" lon="7.765774">
        <time>1970-01-01T00:00:00+00:00</time>
        <ele>223.0</ele>
      </trkpt>
      <trkpt lat="50.016947" lon="7.764883">
        <time>1970-01-01T00:00:00+00:00</time>
        <ele>227.0</ele>
      </trkpt>
      <trkpt lat="50.016947" lon="7.764768">
        <time>1970-01-01T00:00:00+00:00</time>
        <ele>227.0</ele>
      </trkpt>
      <trkpt lat="50.016919" lon="7.764538">
        <time>1970-01-01T00:00:00+00:00</time>
        <ele>226.0</ele>
      </trkpt>
      <trkpt lat="50.016847" lon="7.764139">
        <time>1970-01-01T00:00:00+00:00</time>
        <ele>226.0</ele>
      </trkpt>
      <trkpt lat="50.016635" lon="7.763431">
        <time>1970-01-01T00:00:00+00:00</time>
        <ele>229.0</ele>
      </trkpt>
      <trkpt lat="50.016564" lon="7.763148">
        <time>1970-01-01T00:00:00+00:00</time>
        <ele>229.0</ele>
      </trkpt>
      <trkpt lat="50.016316" lon="7.761427">
        <time>1970-01-01T00:00:00+00:00</time>
        <ele>242.0</ele>
      </trkpt>
      <trkpt lat="50.016196" lon="7.760889">
        <time>1970-01-01T00:00:00+00:00</time>
        <ele>252.0</ele>
      </trkpt>
      <trkpt lat="50.016295" lon="7.760521">
        <time>1970-01-01T00:00:00+00:00</time>
        <ele>253.0</ele>
      </trkpt>
      <trkpt lat="50.016125" lon="7.759976">
        <time>1970-01-01T00:00:00+00:00</time>
        <ele>259.0</ele>
      </trkpt>
      <trkpt lat="50.016118" lon="7.759778">
        <time>1970-01-01T00:00:00+00:00</time>
        <ele>260.0</ele>
      </trkpt>
      <trkpt lat="50.016139" lon="7.759367">
        <time>1970-01-01T00:00:00+00:00</time>
        <ele>261.0</ele>
      </trkpt>
      <trkpt lat="50.016033" lon="7.758999">
        <time>1970-01-01T00:00:00+00:00</time>
        <ele>260.0</ele>
      </trkpt>
      <trkpt lat="50.016032" lon="7.758329">
        <time>1970-01-01T00:00:00+00:00</time>
        <ele>260.0</ele>
      </trkpt>
      <trkpt lat="50.016004" lon="7.758375">
        <time>1970-01-01T00:00:00+00:00</time>
        <ele>260.0</ele>
      </trkpt>
      <trkpt lat="50.015926" lon="7.758388">
        <time>1970-01-01T00:00:00+00:00</time>
        <ele>260.0</ele>
      </trkpt>
      <trkpt lat="50.015477" lon="7.75809">
        <time>1970-01-01T00:00:00+00:00</time>
        <ele>267.0</ele>
      </trkpt>
      <trkpt lat="50.014228" lon="7.756664">
        <time>1970-01-01T00:00:00+00:00</time>
        <ele>304.0</ele>
      </trkpt>
      <trkpt lat="50.014164" lon="7.756626">
        <time>1970-01-01T00:00:00+00:00</time>
        <ele>307.0</ele>
      </trkpt>
      <trkpt lat="50.014198" lon="7.756211">
        <time>1970-01-01T00:00:00+00:00</time>
        <ele>305.0</ele>
      </trkpt>
      <trkpt lat="50.014288" lon="7.755031">
        <time>1970-01-01T00:00:00+00:00</time>
        <ele>307.0</ele>
      </trkpt>
      <trkpt lat="50.014408" lon="7.754482">
        <time>1970-01-01T00:00:00+00:00</time>
        <ele>308.0</ele>
      </trkpt>
      <trkpt lat="50.01441" lon="7.754367">
        <time>1970-01-01T00:00:00+00:00</time>
        <ele>309.0</ele>
      </trkpt>
      <trkpt lat="50.014404" lon="7.754223">
        <time>1970-01-01T00:00:00+00:00</time>
        <ele>310.0</ele>
      </trkpt>
      <trkpt lat="50.014225" lon="7.753148">
        <time>1970-01-01T00:00:00+00:00</time>
        <ele>323.0</ele>
      </trkpt>
      <trkpt lat="50.014098" lon="7.752591">
        <time>1970-01-01T00:00:00+00:00</time>
        <ele>321.0</ele>
      </trkpt>
      <trkpt lat="50.014069" lon="7.752522">
        <time>1970-01-01T00:00:00+00:00</time>
        <ele>321.0</ele>
      </trkpt>
      <trkpt lat="50.01402" lon="7.752478">
        <time>1970-01-01T00:00:00+00:00</time>
        <ele>322.0</ele>
      </trkpt>
      <trkpt lat="50.013946" lon="7.752601">
        <time>1970-01-01T00:00:00+00:00</time>
        <ele>323.0</ele>
      </trkpt>
      <trkpt lat="50.01369" lon="7.752838">
        <time>1970-01-01T00:00:00+00:00</time>
        <ele>326.0</ele>
      </trkpt>
      <trkpt lat="50.013347" lon="7.75312">
        <time>1970-01-01T00:00:00+00:00</time>
        <ele>327.0</ele>
      </trkpt>
      <trkpt lat="50.012868" lon="7.753463">
        <time>1970-01-01T00:00:00+00:00</time>
        <ele>331.0</ele>
      </trkpt>
      <trkpt lat="50.012647" lon="7.753669">
        <time>1970-01-01T00:00:00+00:00</time>
        <ele>334.0</ele>
      </trkpt>
      <trkpt lat="50.012467" lon="7.753927">
        <time>1970-01-01T00:00:00+00:00</time>
        <ele>336.0</ele>
      </trkpt>
      <trkpt lat="50.012171" lon="7.754478">
        <time>1970-01-01T00:00:00+00:00</time>
        <ele>345.0</ele>
      </trkpt>
      <trkpt lat="50.012085" lon="7.754553">
        <time>1970-01-01T00:00:00+00:00</time>
        <ele>348.0</ele>
      </trkpt>
      <trkpt lat="50.012046" lon="7.754758">
        <time>1970-01-01T00:00:00+00:00</time>
        <ele>351.0</ele>
      </trkpt>
      <trkpt lat="50.011892" lon="7.754442">
        <time>1970-01-01T00:00:00+00:00</time>
        <ele>350.0</ele>
      </trkpt>
      <trkpt lat="50.011834" lon="7.754099">
        <time>1970-01-01T00:00:00+00:00</time>
        <ele>349.0</ele>
      </trkpt>
      <trkpt lat="50.011647" lon="7.753455">
        <time>1970-01-01T00:00:00+00:00</time>
        <ele>354.0</ele>
      </trkpt>
      <trkpt lat="50.011534" lon="7.753302">
        <time>1970-01-01T00:00:00+00:00</time>
        <ele>356.0</ele>
      </trkpt>
      <trkpt lat="50.011375" lon="7.753188">
        <time>1970-01-01T00:00:00+00:00</time>
        <ele>357.0</ele>
      </trkpt>
      <trkpt lat="50.01129" lon="7.753058">
        <time>1970-01-01T00:00:00+00:00</time>
        <ele>359.0</ele>
      </trkpt>
      <trkpt lat="50.011234" lon="7.752854">
        <time>1970-01-01T00:00:00+00:00</time>
        <ele>361.0</ele>
      </trkpt>
      <trkpt lat="50.011072" lon="7.752988">
        <time>1970-01-01T00:00:00+00:00</time>
        <ele>362.0</ele>
      </trkpt>
      <trkpt lat="50.009573" lon="7.751868">
        <time>1970-01-01T00:00:00+00:00</time>
        <ele>382.0</ele>
      </trkpt>
      <trkpt lat="50.008997" lon="7.751337">
        <time>1970-01-01T00:00:00+00:00</time>
        <ele>386.0</ele>
      </trkpt>
      <trkpt lat="50.008753" lon="7.751144">
        <time>1970-01-01T00:00:00+00:00</time>
        <ele>389.0</ele>
      </trkpt>
      <trkpt lat="50.007605" lon="7.750565">
        <time>1970-01-01T00:00:00+00:00</time>
        <ele>412.0</ele>
      </trkpt>
      <trkpt lat="50.007377" lon="7.750393">
        <time>1970-01-01T00:00:00+00:00</time>
        <ele>413.0</ele>
      </trkpt>
      <trkpt lat="50.006774" lon="7.750195">
        <time>1970-01-01T00:00:00+00:00</time>
        <ele>417.0</ele>
      </trkpt>
      <trkpt lat="50.006336" lon="7.74991">
        <time>1970-01-01T00:00:00+00:00</time>
        <ele>422.0</ele>
      </trkpt>
      <trkpt lat="50.005507" lon="7.749219">
        <time>1970-01-01T00:00:00+00:00</time>
        <ele>436.0</ele>
      </trkpt>
      <trkpt lat="50.005512" lon="7.749063">
        <time>1970-01-01T00:00:00+00:00</time>
        <ele>435.0</ele>
      </trkpt>
      <trkpt lat="50.005584" lon="7.748801">
        <time>1970-01-01T00:00:00+00:00</time>
        <ele>431.0</ele>
      </trkpt>
      <trkpt lat="50.005604" lon="7.748511">
        <time>1970-01-01T00:00:00+00:00</time>
        <ele>427.0</ele>
      </trkpt>
      <trkpt lat="50.005673" lon="7.748109">
        <time>1970-01-01T00:00:00+00:00</time>
        <ele>425.0</ele>
      </trkpt>
      <trkpt lat="50.006006" lon="7.74654">
        <time>1970-01-01T00:00:00+00:00</time>
        <ele>434.0</ele>
      </trkpt>
      <trkpt lat="50.006038" lon="7.746194">
        <time>1970-01-01T00:00:00+00:00</time>
        <ele>436.0</ele>
      </trkpt>
      <trkpt lat="50.006127" lon="7.745903">
        <time>1970-01-01T00:00:00+00:00</time>
        <ele>437.0</ele>
      </trkpt>
      <trkpt lat="50.006086" lon="7.745603">
        <time>1970-01-01T00:00:00+00:00</time>
        <ele>437.0</ele>
      </trkpt>
      <trkpt lat="50.005965" lon="7.745087">
        <time>1970-01-01T00:00:00+00:00</time>
        <ele>428.0</ele>
      </trkpt>
      <trkpt lat="50.005842" lon="7.744684">
        <time>1970-01-01T00:00:00+00:00</time>
        <ele>424.0</ele>
      </trkpt>
      <trkpt lat="50.005969" lon="7.744635">
        <time>1970-01-01T00:00:00+00:00</time>
        <ele>424.0</ele>
      </trkpt>
      <trkpt lat="50.00623" lon="7.74467">
        <time>1970-01-01T00:00:00+00:00</time>
        <ele>423.0</ele>
      </trkpt>
      <trkpt lat="50.00623" lon="7.74467">
        <time>1970-01-01T00:00:00+00:00</time>
        <ele>423.0</ele>
      </trkpt>
      <trkpt lat="50.005969" lon="7.744635">
        <time>1970-01-01T00:00:00+00:00</time>
        <ele>424.0</ele>
      </trkpt>
      <trkpt lat="50.005842" lon="7.744684">
        <time>1970-01-01T00:00:00+00:00</time>
        <ele>424.0</ele>
      </trkpt>
      <trkpt lat="50.005965" lon="7.745087">
        <time>1970-01-01T00:00:00+00:00</time>
        <ele>428.0</ele>
      </trkpt>
      <trkpt lat="50.006086" lon="7.745603">
        <time>1970-01-01T00:00:00+00:00</time>
        <ele>437.0</ele>
      </trkpt>
      <trkpt lat="50.006127" lon="7.745903">
        <time>1970-01-01T00:00:00+00:00</time>
        <ele>437.0</ele>
      </trkpt>
      <trkpt lat="50.006038" lon="7.746194">
        <time>1970-01-01T00:00:00+00:00</time>
        <ele>436.0</ele>
      </trkpt>
      <trkpt lat="50.006006" lon="7.74654">
        <time>1970-01-01T00:00:00+00:00</time>
        <ele>434.0</ele>
      </trkpt>
      <trkpt lat="50.005673" lon="7.748109">
        <time>1970-01-01T00:00:00+00:00</time>
        <ele>425.0</ele>
      </trkpt>
      <trkpt lat="50.005604" lon="7.748511">
        <time>1970-01-01T00:00:00+00:00</time>
        <ele>427.0</ele>
      </trkpt>
      <trkpt lat="50.005584" lon="7.748801">
        <time>1970-01-01T00:00:00+00:00</time>
        <ele>431.0</ele>
      </trkpt>
      <trkpt lat="50.005512" lon="7.749063">
        <time>1970-01-01T00:00:00+00:00</time>
        <ele>435.0</ele>
      </trkpt>
      <trkpt lat="50.005507" lon="7.749219">
        <time>1970-01-01T00:00:00+00:00</time>
        <ele>436.0</ele>
      </trkpt>
      <trkpt lat="50.005469" lon="7.750381">
        <time>1970-01-01T00:00:00+00:00</time>
        <ele>433.0</ele>
      </trkpt>
      <trkpt lat="50.005438" lon="7.750832">
        <time>1970-01-01T00:00:00+00:00</time>
        <ele>428.0</ele>
      </trkpt>
      <trkpt lat="50.005425" lon="7.751377">
        <time>1970-01-01T00:00:00+00:00</time>
        <ele>423.0</ele>
      </trkpt>
      <trkpt lat="50.005452" lon="7.752125">
        <time>1970-01-01T00:00:00+00:00</time>
        <ele>418.0</ele>
      </trkpt>
      <trkpt lat="50.005471" lon="7.753675">
        <time>1970-01-01T00:00:00+00:00</time>
        <ele>412.0</ele>
      </trkpt>
      <trkpt lat="50.005447" lon="7.755591">
        <time>1970-01-01T00:00:00+00:00</time>
        <ele>403.0</ele>
      </trkpt>
      <trkpt lat="50.005383" lon="7.757529">
        <time>1970-01-01T00:00:00+00:00</time>
        <ele>411.0</ele>
      </trkpt>
      <trkpt lat="50.005384" lon="7.757986">
        <time>1970-01-01T00:00:00+00:00</time>
        <ele>411.0</ele>
      </trkpt>
      <trkpt lat="50.005486" lon="7.758776">
        <time>1970-01-01T00:00:00+00:00</time>
        <ele>408.0</ele>
      </trkpt>
      <trkpt lat="50.005474" lon="7.758854">
        <time>1970-01-01T00:00:00+00:00</time>
        <ele>409.0</ele>
      </trkpt>
      <trkpt lat="50.005317" lon="7.75984">
        <time>1970-01-01T00:00:00+00:00</time>
        <ele>410.0</ele>
      </trkpt>
      <trkpt lat="50.005159" lon="7.760824">
        <time>1970-01-01T00:00:00+00:00</time>
        <ele>421.0</ele>
      </trkpt>
      <trkpt lat="50.005142" lon="7.761186">
        <time>1970-01-01T00:00:00+00:00</time>
        <ele>424.0</ele>
      </trkpt>
      <trkpt lat="50.005185" lon="7.761728">
        <time>1970-01-01T00:00:00+00:00</time>
        <ele>427.0</ele>
      </trkpt>
      <trkpt lat="50.005374" lon="7.76282">
        <time>1970-01-01T00:00:00+00:00</time>
        <ele>423.0</ele>
      </trkpt>
      <trkpt lat="50.005615" lon="7.763939">
        <time>1970-01-01T00:00:00+00:00</time>
        <ele>418.0</ele>
      </trkpt>
      <trkpt lat="50.00585" lon="7.765149">
        <time>1970-01-01T00:00:00+00:00</time>
        <ele>418.0</ele>
      </trkpt>
      <trkpt lat="50.006053" lon="7.766084">
        <time>1970-01-01T00:00:00+00:00</time>
        <ele>418.0</ele>
      </trkpt>
      <trkpt lat="50.006108" lon="7.76661">
        <time>1970-01-01T00:00:00+00:00</time>
        <ele>419.0</ele>
      </trkpt>
      <trkpt lat="50.006122" lon="7.766964">
        <time>1970-01-01T00:00:00+00:00</time>
        <ele>420.0</ele>
      </trkpt>
      <trkpt lat="50.00596" lon="7.769928">
        <time>1970-01-01T00:00:00+00:00</time>
        <ele>432.0</ele>
      </trkpt>
      <trkpt lat="50.005924" lon="7.770472">
        <time>1970-01-01T00:00:00+00:00</time>
        <ele>435.0</ele>
      </trkpt>
      <trkpt lat="50.005892" lon="7.770914">
        <time>1970-01-01T00:00:00+00:00</time>
        <ele>434.0</ele>
      </trkpt>
      <trkpt lat="50.005883" lon="7.771408">
        <time>1970-01-01T00:00:00+00:00</time>
        <ele>436.0</ele>
      </trkpt>
      <trkpt lat="50.006464" lon="7.771774">
        <time>1970-01-01T00:00:00+00:00</time>
        <ele>428.0</ele>
      </trkpt>
      <trkpt lat="50.006646" lon="7.77181">
        <time>1970-01-01T00:00:00+00:00</time>
        <ele>427.0</ele>
      </trkpt>
      <trkpt lat="50.006981" lon="7.771927">
        <time>1970-01-01T00:00:00+00:00</time>
        <ele>424.0</ele>
      </trkpt>
      <trkpt lat="50.007618" lon="7.772218">
        <time>1970-01-01T00:00:00+00:00</time>
        <ele>416.0</ele>
      </trkpt>
      <trkpt lat="50.007806" lon="7.772268">
        <time>1970-01-01T00:00:00+00:00</time>
        <ele>413.0</ele>
      </trkpt>
      <trkpt lat="50.008112" lon="7.772097">
        <time>1970-01-01T00:00:00+00:00</time>
        <ele>408.0</ele>
      </trkpt>
      <trkpt lat="50.008367" lon="7.772083">
        <time>1970-01-01T00:00:00+00:00</time>
        <ele>404.0</ele>
      </trkpt>
      <trkpt lat="50.008619" lon="7.772005">
        <time>1970-01-01T00:00:00+00:00</time>
        <ele>402.0</ele>
      </trkpt>
      <trkpt lat="50.008798" lon="7.771897">
        <time>1970-01-01T00:00:00+00:00</time>
        <ele>401.0</ele>
      </trkpt>
      <trkpt lat="50.008953" lon="7.771772">
        <time>1970-01-01T00:00:00+00:00</time>
        <ele>401.0</ele>
      </trkpt>
      <trkpt lat="50.009157" lon="7.771761">
        <time>1970-01-01T00:00:00+00:00</time>
        <ele>402.0</ele>
      </trkpt>
      <trkpt lat="50.009337" lon="7.771872">
        <time>1970-01-01T00:00:00+00:00</time>
        <ele>402.0</ele>
      </trkpt>
      <trkpt lat="50.009473" lon="7.771861">
        <time>1970-01-01T00:00:00+00:00</time>
        <ele>401.0</ele>
      </trkpt>
      <trkpt lat="50.009581" lon="7.771826">
        <time>1970-01-01T00:00:00+00:00</time>
        <ele>400.0</ele>
      </trkpt>
      <trkpt lat="50.00975" lon="7.771851">
        <time>1970-01-01T00:00:00+00:00</time>
        <ele>397.0</ele>
      </trkpt>
      <trkpt lat="50.010591" lon="7.772246">
        <time>1970-01-01T00:00:00+00:00</time>
        <ele>384.0</ele>
      </trkpt>
      <trkpt lat="50.010847" lon="7.772335">
        <time>1970-01-01T00:00:00+00:00</time>
        <ele>379.0</ele>
      </trkpt>
      <trkpt lat="50.011026" lon="7.772367">
        <time>1970-01-01T00:00:00+00:00</time>
        <ele>376.0</ele>
      </trkpt>
      <trkpt lat="50.011174" lon="7.772304">
        <time>1970-01-01T00:00:00+00:00</time>
        <ele>373.0</ele>
      </trkpt>
      <trkpt lat="50.01134" lon="7.771954">
        <time>1970-01-01T00:00:00+00:00</time>
        <ele>371.0</ele>
      </trkpt>
      <trkpt lat="50.011775" lon="7.77093">
        <time>1970-01-01T00:00:00+00:00</time>
        <ele>361.0</ele>
      </trkpt>
      <trkpt lat="50.011939" lon="7.770717">
        <time>1970-01-01T00:00:00+00:00</time>
        <ele>358.0</ele>
      </trkpt>
      <trkpt lat="50.012179" lon="7.770593">
        <time>1970-01-01T00:00:00+00:00</time>
        <ele>354.0</ele>
      </trkpt>
      <trkpt lat="50.012464" lon="7.770537">
        <time>1970-01-01T00:00:00+00:00</time>
        <ele>351.0</ele>
      </trkpt>
      <trkpt lat="50.01278" lon="7.770557">
        <time>1970-01-01T00:00:00+00:00</time>
        <ele>350.0</ele>
      </trkpt>
      <trkpt lat="50.013001" lon="7.77061">
        <time>1970-01-01T00:00:00+00:00</time>
        <ele>347.0</ele>
      </trkpt>
      <trkpt lat="50.013052" lon="7.770623">
        <time>1970-01-01T00:00:00+00:00</time>
        <ele>346.0</ele>
      </trkpt>
      <trkpt lat="50.013411" lon="7.770838">
        <time>1970-01-01T00:00:00+00:00</time>
        <ele>340.0</ele>
      </trkpt>
      <trkpt lat="50.013526" lon="7.770982">
        <time>1970-01-01T00:00:00+00:00</time>
        <ele>337.0</ele>
      </trkpt>
      <trkpt lat="50.01358" lon="7.77115">
        <time>1970-01-01T00:00:00+00:00</time>
        <ele>335.0</ele>
      </trkpt>
      <trkpt lat="50.013566" lon="7.771341">
        <time>1970-01-01T00:00:00+00:00</time>
        <ele>333.0</ele>
      </trkpt>
      <trkpt lat="50.013447" lon="7.771509">
        <time>1970-01-01T00:00:00+00:00</time>
        <ele>331.0</ele>
      </trkpt>
      <trkpt lat="50.013214" lon="7.771671">
        <time>1970-01-01T00:00:00+00:00</time>
        <ele>331.0</ele>
      </trkpt>
      <trkpt lat="50.013106" lon="7.771807">
        <time>1970-01-01T00:00:00+00:00</time>
        <ele>330.0</ele>
      </trkpt>
      <trkpt lat="50.013013" lon="7.772001">
        <time>1970-01-01T00:00:00+00:00</time>
        <ele>331.0</ele>
      </trkpt>
      <trkpt lat="50.012966" lon="7.772198">
        <time>1970-01-01T00:00:00+00:00</time>
        <ele>331.0</ele>
      </trkpt>
      <trkpt lat="50.012977" lon="7.772342">
        <time>1970-01-01T00:00:00+00:00</time>
        <ele>331.0</ele>
      </trkpt>
      <trkpt lat="50.013038" lon="7.772539">
        <time>1970-01-01T00:00:00+00:00</time>
        <ele>330.0</ele>
      </trkpt>
      <trkpt lat="50.013433" lon="7.773372">
        <time>1970-01-01T00:00:00+00:00</time>
        <ele>316.0</ele>
      </trkpt>
      <trkpt lat="50.013541" lon="7.773509">
        <time>1970-01-01T00:00:00+00:00</time>
        <ele>315.0</ele>
      </trkpt>
      <trkpt lat="50.013767" lon="7.773731">
        <time>1970-01-01T00:00:00+00:00</time>
        <ele>308.0</ele>
      </trkpt>
      <trkpt lat="50.01429" lon="7.774155">
        <time>1970-01-01T00:00:00+00:00</time>
        <ele>296.0</ele>
      </trkpt>
      <trkpt lat="50.014722" lon="7.774687">
        <time>1970-01-01T00:00:00+00:00</time>
        <ele>288.0</ele>
      </trkpt>
      <trkpt lat="50.014907" lon="7.774856">
        <time>1970-01-01T00:00:00+00:00</time>
        <ele>282.0</ele>
      </trkpt>
      <trkpt lat="50.01513" lon="7.774957">
        <time>1970-01-01T00:00:00+00:00</time>
        <ele>276.0</ele>
      </trkpt>
      <trkpt lat="50.015215" lon="7.774996">
        <time>1970-01-01T00:00:00+00:00</time>
        <ele>274.0</ele>
      </trkpt>
      <trkpt lat="50.016093" lon="7.775204">
        <time>1970-01-01T00:00:00+00:00</time>
        <ele>262.0</ele>
      </trkpt>
      <trkpt lat="50.01618" lon="7.775192">
        <time>1970-01-01T00:00:00+00:00</time>
        <ele>261.0</ele>
      </trkpt>
      <trkpt lat="50.016265" lon="7.77513">
        <time>1970-01-01T00:00:00+00:00</time>
        <ele>259.0</ele>
      </trkpt>
      <trkpt lat="50.016331" lon="7.775042">
        <time>1970-01-01T00:00:00+00:00</time>
        <ele>259.0</ele>
      </trkpt>
      <trkpt lat="50.016389" lon="7.774873">
        <time>1970-01-01T00:00:00+00:00</time>
        <ele>259.0</ele>
      </trkpt>
      <trkpt lat="50.016463" lon="7.77474">
        <time>1970-01-01T00:00:00+00:00</time>
        <ele>257.0</ele>
      </trkpt>
      <trkpt lat="50.017043" lon="7.774469">
        <time>1970-01-01T00:00:00+00:00</time>
        <ele>249.0</ele>
      </trkpt>
      <trkpt lat="50.017307" lon="7.774287">
        <time>1970-01-01T00:00:00+00:00</time>
        <ele>242.0</ele>
      </trkpt>
      <trkpt lat="50.017371" lon="7.774267">
        <time>1970-01-01T00:00:00+00:00</time>
        <ele>241.0</ele>
      </trkpt>
      <trkpt lat="50.017494" lon="7.774287">
        <time>1970-01-01T00:00:00+00:00</time>
        <ele>239.0</ele>
      </trkpt>
      <trkpt lat="50.017572" lon="7.774359">
        <time>1970-01-01T00:00:00+00:00</time>
        <ele>239.0</ele>
      </trkpt>
      <trkpt lat="50.017681" lon="7.774517">
        <time>1970-01-01T00:00:00+00:00</time>
        <ele>239.0</ele>
      </trkpt>
      <trkpt lat="50.017787" lon="7.774733">
        <time>1970-01-01T00:00:00+00:00</time>
        <ele>238.0</ele>
      </trkpt>
      <trkpt lat="50.017887" lon="7.774882">
        <time>1970-01-01T00:00:00+00:00</time>
        <ele>238.0</ele>
      </trkpt>
      <trkpt lat="50.018097" lon="7.775034">
        <time>1970-01-01T00:00:00+00:00</time>
        <ele>234.0</ele>
      </trkpt>
      <trkpt lat="50.018309" lon="7.775319">
        <time>1970-01-01T00:00:00+00:00</time>
        <ele>228.0</ele>
      </trkpt>
      <trkpt lat="50.018421" lon="7.775587">
        <time>1970-01-01T00:00:00+00:00</time>
        <ele>225.0</ele>
      </trkpt>
      <trkpt lat="50.018645" lon="7.776254">
        <time>1970-01-01T00:00:00+00:00</time>
        <ele>223.0</ele>
      </trkpt>
      <trkpt lat="50.018964" lon="7.776901">
        <time>1970-01-01T00:00:00+00:00</time>
        <ele>214.0</ele>
      </trkpt>
      <trkpt lat="50.019085" lon="7.777077">
        <time>1970-01-01T00:00:00+00:00</time>
        <ele>212.0</ele>
      </trkpt>
      <trkpt lat="50.019396" lon="7.777256">
        <time>1970-01-01T00:00:00+00:00</time>
        <ele>204.0</ele>
      </trkpt>
      <trkpt lat="50.019911" lon="7.77751">
        <time>1970-01-01T00:00:00+00:00</time>
        <ele>194.0</ele>
      </trkpt>
      <trkpt lat="50.020234" lon="7.77778">
        <time>1970-01-01T00:00:00+00:00</time>
        <ele>187.0</ele>
      </trkpt>
      <trkpt lat="50.020652" lon="7.777767">
        <time>1970-01-01T00:00:00+00:00</time>
        <ele>182.0</ele>
      </trkpt>
      <trkpt lat="50.021022" lon="7.777887">
        <time>1970-01-01T00:00:00+00:00</time>
        <ele>180.0</ele>
      </trkpt>
      <trkpt lat="50.021046" lon="7.77809">
        <time>1970-01-01T00:00:00+00:00</time>
        <ele>180.0</ele>
      </trkpt>
      <trkpt lat="50.021155" lon="7.779057">
        <time>1970-01-01T00:00:00+00:00</time>
        <ele>179.0</ele>
      </trkpt>
      <trkpt lat="50.021232" lon="7.779977">
        <time>1970-01-01T00:00:00+00:00</time>
        <ele>177.0</ele>
      </trkpt>
      <trkpt lat="50.02135" lon="7.780555">
        <time>1970-01-01T00:00:00+00:00</time>
        <ele>174.0</ele>
      </trkpt>
      <trkpt lat="50.021558" lon="7.781447">
        <time>1970-01-01T00:00:00+00:00</time>
        <ele>170.0</ele>
      </trkpt>
    </trkseg>
  </trk>
</gpx>
